Time,TemperatureF,DewpointF,PressureIn,WindDirection,WindDirectionDegrees,WindSpeedMPH,WindSpeedGustMPH,Humidity,HourlyPrecipIn,Conditions,Clouds,dailyrainin,SolarRadiationWatts/m^2,SoftwareType,DateUTC
2013-06-16 00:01:00,59.0,37.0,-100.00,East,84,1.0,7.0,44,0.00,,,0.02,0.000000,,2013-06-16 06:01:00,
2013-06-16 00:11:00,59.0,37.0,-100.00,East,84,1.0,7.0,44,0.00,,,0.02,0.000000,,2013-06-16 06:11:00,
2013-06-16 00:22:00,59.0,37.0,-100.00,East,84,1.0,7.0,44,0.00,,,0.02,0.000000,,2013-06-16 06:22:00,
2013-06-16 00:30:00,58.0,36.0,-100.00,ENE,61,3.0,6.0,44,0.00,,,0.02,0.000000,,2013-06-16 06:30:00,
2013-06-16 00:52:00,58.0,36.0,-100.00,ENE,61,3.0,6.0,44,0.00,,,0.02,0.000000,,2013-06-16 06:52:00,
2013-06-16 01:01:00,58.0,36.0,-100.00,ENE,61,3.0,6.0,44,0.00,,,0.02,0.000000,,2013-06-16 07:01:00,
2013-06-16 01:11:00,58.0,36.0,-100.00,ENE,61,3.0,6.0,44,0.00,,,0.02,0.000000,,2013-06-16 07:11:00,
2013-06-16 01:22:00,58.0,36.0,-100.00,ENE,61,3.0,6.0,44,0.00,,,0.02,0.000000,,2013-06-16 07:22:00,
2013-06-16 01:30:00,59.0,35.0,-100.00,ENE,74,5.0,8.0,41,0.00,,,0.02,0.000000,,2013-06-16 07:30:00,
2013-06-16 01:53:00,59.0,35.0,-100.00,ENE,74,5.0,8.0,41,0.00,,,0.02,0.000000,,2013-06-16 07:53:00,
2013-06-16 02:02:00,59.0,35.0,-100.00,ENE,74,5.0,8.0,41,0.00,,,0.02,0.000000,,2013-06-16 08:02:00,
2013-06-16 02:11:00,59.0,35.0,-100.00,ENE,74,5.0,8.0,41,0.00,,,0.02,0.000000,,2013-06-16 08:11:00,
2013-06-16 02:22:00,59.0,35.0,-100.00,ENE,74,5.0,8.0,41,0.00,,,0.02,0.000000,,2013-06-16 08:22:00,
2013-06-16 02:30:00,59.0,38.0,-100.00,East,101,4.0,9.0,45,0.00,,,0.02,0.000000,,2013-06-16 08:30:00,
2013-06-16 02:54:00,59.0,38.0,-100.00,East,101,4.0,9.0,45,0.00,,,0.02,0.000000,,2013-06-16 08:54:00,
2013-06-16 03:02:00,59.0,38.0,-100.00,East,101,4.0,9.0,45,0.00,,,0.02,0.000000,,2013-06-16 09:02:00,
2013-06-16 03:11:00,59.0,38.0,-100.00,East,101,4.0,9.0,45,0.00,,,0.02,0.000000,,2013-06-16 09:11:00,
2013-06-16 03:22:00,59.0,38.0,-100.00,East,101,4.0,9.0,45,0.00,,,0.02,0.000000,,2013-06-16 09:22:00,
2013-06-16 03:52:00,59.0,38.0,-100.00,ENE,69,4.0,13.0,46,0.00,,,0.02,0.000000,,2013-06-16 09:52:00,
2013-06-16 04:01:00,59.0,38.0,-100.00,ENE,69,4.0,13.0,46,0.00,,,0.02,0.000000,,2013-06-16 10:01:00,
2013-06-16 04:30:00,56.0,39.0,-100.00,NE,54,3.0,7.0,53,0.00,,,0.02,0.000000,,2013-06-16 10:30:00,
2013-06-16 04:54:00,56.0,39.0,-100.00,NE,54,3.0,7.0,53,0.00,,,0.02,0.000000,,2013-06-16 10:54:00,
2013-06-16 05:02:00,56.0,39.0,-100.00,NE,54,3.0,7.0,53,0.00,,,0.02,0.000000,,2013-06-16 11:02:00,
2013-06-16 05:53:00,57.0,38.0,-100.00,NE,37,4.0,7.0,49,-99.99,,,0.02,0.000000,,2013-06-16 11:53:00,
2013-06-16 06:02:00,57.0,38.0,-100.00,NE,37,4.0,7.0,49,-99.99,,,0.02,0.000000,,2013-06-16 12:02:00,
2013-06-16 06:11:00,57.0,38.0,-100.00,NE,37,4.0,7.0,49,-99.99,,,0.02,0.000000,,2013-06-16 12:11:00,
2013-06-16 06:53:00,56.0,38.0,-100.00,NE,40,2.0,5.0,50,-99.99,,,0.02,12.000000,,2013-06-16 12:53:00,
2013-06-16 07:01:00,56.0,38.0,-100.00,NE,40,2.0,5.0,50,-99.99,,,0.02,12.000000,,2013-06-16 13:01:00,
2013-06-16 09:12:00,70.0,40.0,-100.00,SE,130,3.0,7.0,34,0.00,,,-99.99,420.000000,,2013-06-16 15:12:00,
2013-06-16 09:23:00,70.0,40.0,-100.00,SE,130,3.0,7.0,34,0.00,,,-99.99,420.000000,,2013-06-16 15:23:00,
2013-06-16 09:30:00,73.0,41.0,-100.00,SSE,167,3.0,8.0,32,-99.99,,,0.02,644.000000,,2013-06-16 15:30:00,
2013-06-16 09:53:00,73.0,41.0,-100.00,SSE,167,3.0,8.0,32,-99.99,,,0.02,644.000000,,2013-06-16 15:53:00,
2013-06-16 10:02:00,73.0,41.0,-100.00,SSE,167,3.0,8.0,32,-99.99,,,0.02,644.000000,,2013-06-16 16:02:00,
2013-06-16 10:12:00,73.0,41.0,-100.00,SSE,167,3.0,8.0,32,-99.99,,,0.02,644.000000,,2013-06-16 16:12:00,
2013-06-16 10:22:00,73.0,41.0,-100.00,SSE,167,3.0,8.0,32,-99.99,,,0.02,644.000000,,2013-06-16 16:22:00,
2013-06-16 10:30:00,75.0,40.0,-100.00,South,175,3.0,9.0,28,0.00,,,0.02,850.000000,,2013-06-16 16:30:00,
2013-06-16 10:53:00,75.0,40.0,-100.00,South,175,3.0,9.0,28,0.00,,,0.02,850.000000,,2013-06-16 16:53:00,
2013-06-16 11:02:00,75.0,40.0,-100.00,South,175,3.0,9.0,28,0.00,,,0.02,850.000000,,2013-06-16 17:02:00,
2013-06-16 11:12:00,75.0,40.0,-100.00,South,175,3.0,9.0,28,0.00,,,0.02,850.000000,,2013-06-16 17:12:00,
2013-06-16 11:22:00,75.0,40.0,-100.00,South,175,3.0,9.0,28,0.00,,,0.02,850.000000,,2013-06-16 17:22:00,
2013-06-16 11:30:00,78.0,37.0,-100.00,SW,223,6.0,12.0,23,0.00,,,0.02,951.000000,,2013-06-16 17:30:00,
2013-06-16 11:53:00,78.0,37.0,-100.00,SW,223,6.0,12.0,23,0.00,,,0.02,951.000000,,2013-06-16 17:53:00,
2013-06-16 12:02:00,78.0,37.0,-100.00,SW,223,6.0,12.0,23,0.00,,,0.02,951.000000,,2013-06-16 18:02:00,
2013-06-16 12:12:00,78.0,37.0,-100.00,SW,223,6.0,12.0,23,0.00,,,0.02,951.000000,,2013-06-16 18:12:00,
2013-06-16 12:22:00,78.0,37.0,-100.00,SW,223,6.0,12.0,23,0.00,,,0.02,951.000000,,2013-06-16 18:22:00,
2013-06-16 12:30:00,80.0,34.0,-100.00,West,272,7.0,15.0,19,0.00,,,0.02,1071.000000,,2013-06-16 18:30:00,
2013-06-16 12:52:00,80.0,34.0,-100.00,West,272,7.0,15.0,19,0.00,,,0.02,1071.000000,,2013-06-16 18:52:00,
2013-06-16 13:01:00,80.0,34.0,-100.00,West,272,7.0,15.0,19,0.00,,,0.02,1071.000000,,2013-06-16 19:01:00,
2013-06-16 13:11:00,80.0,34.0,-100.00,West,272,7.0,15.0,19,0.00,,,0.02,1071.000000,,2013-06-16 19:11:00,
2013-06-16 13:22:00,80.0,34.0,-100.00,West,272,7.0,15.0,19,0.00,,,0.02,1071.000000,,2013-06-16 19:22:00,
2013-06-16 13:30:00,81.0,33.0,-100.00,SW,235,7.0,17.0,18,0.00,,,0.02,903.000000,,2013-06-16 19:30:00,
2013-06-16 13:53:00,81.0,33.0,-100.00,SW,235,7.0,17.0,18,0.00,,,0.02,903.000000,,2013-06-16 19:53:00,
2013-06-16 14:02:00,81.0,33.0,-100.00,SW,235,7.0,17.0,18,0.00,,,0.02,903.000000,,2013-06-16 20:02:00,
2013-06-16 14:11:00,81.0,33.0,-100.00,SW,235,7.0,17.0,18,0.00,,,0.02,903.000000,,2013-06-16 20:11:00,
2013-06-16 14:22:00,81.0,33.0,-100.00,SW,235,7.0,17.0,18,0.00,,,0.02,903.000000,,2013-06-16 20:22:00,
2013-06-16 14:30:00,80.0,30.0,-100.00,SW,222,6.0,18.0,16,0.00,,,0.02,963.000000,,2013-06-16 20:30:00,
2013-06-16 14:53:00,80.0,30.0,-100.00,SW,222,6.0,18.0,16,0.00,,,0.02,963.000000,,2013-06-16 20:53:00,
2013-06-16 15:01:00,80.0,30.0,-100.00,SW,222,6.0,18.0,16,0.00,,,0.02,963.000000,,2013-06-16 21:01:00,
2013-06-16 15:11:00,80.0,30.0,-100.00,SW,222,6.0,18.0,16,0.00,,,0.02,963.000000,,2013-06-16 21:11:00,
2013-06-16 15:22:00,80.0,30.0,-100.00,SW,222,6.0,18.0,16,0.00,,,0.02,963.000000,,2013-06-16 21:22:00,
2013-06-16 15:30:00,80.0,31.0,-100.00,West,279,5.0,16.0,17,0.00,,,0.00,721.000000,,2013-06-16 21:30:00,
2013-06-16 15:53:00,80.0,31.0,-100.00,West,279,5.0,16.0,17,0.00,,,0.00,721.000000,,2013-06-16 21:53:00,
2013-06-16 16:01:00,80.0,31.0,-100.00,West,279,5.0,16.0,17,0.00,,,0.00,721.000000,,2013-06-16 22:01:00,
2013-06-16 16:12:00,80.0,31.0,-100.00,West,279,5.0,16.0,17,0.00,,,0.00,721.000000,,2013-06-16 22:12:00,
2013-06-16 16:22:00,80.0,31.0,-100.00,West,279,5.0,16.0,17,0.00,,,0.00,721.000000,,2013-06-16 22:22:00,
2013-06-16 16:30:00,84.0,31.0,-100.00,WSW,247,7.0,23.0,15,0.00,,,0.00,878.000000,,2013-06-16 22:30:00,
2013-06-16 16:52:00,84.0,31.0,-100.00,WSW,247,7.0,23.0,15,0.00,,,0.00,878.000000,,2013-06-16 22:52:00,
2013-06-16 17:01:00,84.0,31.0,-100.00,WSW,247,7.0,23.0,15,0.00,,,0.00,878.000000,,2013-06-16 23:01:00,
2013-06-16 17:11:00,84.0,31.0,-100.00,WSW,247,7.0,23.0,15,0.00,,,0.00,878.000000,,2013-06-16 23:11:00,
2013-06-16 17:22:00,84.0,31.0,-100.00,WSW,247,7.0,23.0,15,0.00,,,0.00,878.000000,,2013-06-16 23:22:00,
2013-06-16 17:30:00,81.0,31.0,-100.00,West,267,8.0,16.0,16,0.00,,,0.00,610.000000,,2013-06-16 23:30:00,
2013-06-16 17:52:00,81.0,31.0,-100.00,West,267,8.0,16.0,16,0.00,,,0.00,610.000000,,2013-06-16 23:52:00,
2013-06-16 18:02:00,81.0,31.0,-100.00,West,267,8.0,16.0,16,0.00,,,0.00,610.000000,,2013-06-17 00:02:00,
2013-06-16 18:11:00,81.0,31.0,-100.00,West,267,8.0,16.0,16,0.00,,,0.00,610.000000,,2013-06-17 00:11:00,
2013-06-16 18:22:00,81.0,31.0,-100.00,West,267,8.0,16.0,16,0.00,,,0.00,610.000000,,2013-06-17 00:22:00,
2013-06-16 18:30:00,81.0,31.0,-100.00,WSW,255,5.0,16.0,16,0.00,,,0.00,483.000000,,2013-06-17 00:30:00,
2013-06-16 18:52:00,81.0,31.0,-100.00,WSW,255,5.0,16.0,16,0.00,,,0.00,483.000000,,2013-06-17 00:52:00,
2013-06-16 19:02:00,81.0,31.0,-100.00,WSW,255,5.0,16.0,16,0.00,,,0.00,483.000000,,2013-06-17 01:02:00,
2013-06-16 19:11:00,81.0,31.0,-100.00,WSW,255,5.0,16.0,16,0.00,,,0.00,483.000000,,2013-06-17 01:11:00,
2013-06-16 19:22:00,81.0,31.0,-100.00,WSW,255,5.0,16.0,16,0.00,,,0.00,483.000000,,2013-06-17 01:22:00,
2013-06-16 19:30:00,79.0,27.0,-100.00,West,267,4.0,14.0,15,0.00,,,0.00,134.000000,,2013-06-17 01:30:00,
2013-06-16 19:53:00,79.0,27.0,-100.00,West,267,4.0,14.0,15,0.00,,,0.00,134.000000,,2013-06-17 01:53:00,
2013-06-16 20:02:00,79.0,27.0,-100.00,West,267,4.0,14.0,15,0.00,,,0.00,134.000000,,2013-06-17 02:02:00,
2013-06-16 20:12:00,79.0,27.0,-100.00,West,267,4.0,14.0,15,0.00,,,0.00,134.000000,,2013-06-17 02:12:00,
2013-06-16 20:22:00,79.0,27.0,-100.00,West,267,4.0,14.0,15,0.00,,,0.00,134.000000,,2013-06-17 02:22:00,
2013-06-16 20:30:00,75.0,26.0,-100.00,West,271,5.0,16.0,16,0.00,,,0.00,44.000000,,2013-06-17 02:30:00,
2013-06-16 20:53:00,75.0,26.0,-100.00,West,271,5.0,16.0,16,0.00,,,0.00,44.000000,,2013-06-17 02:53:00,
2013-06-16 21:02:00,75.0,26.0,-100.00,West,271,5.0,16.0,16,0.00,,,0.00,44.000000,,2013-06-17 03:02:00,
2013-06-16 21:12:00,75.0,26.0,-100.00,West,271,5.0,16.0,16,0.00,,,0.00,44.000000,,2013-06-17 03:12:00,
2013-06-16 21:22:00,75.0,26.0,-100.00,West,271,5.0,16.0,16,0.00,,,0.00,44.000000,,2013-06-17 03:22:00,
2013-06-16 21:30:00,70.0,25.0,-100.00,NW,322,3.0,5.0,18,0.00,,,0.00,2.000000,,2013-06-17 03:30:00,
2013-06-16 21:54:00,70.0,25.0,-100.00,NW,322,3.0,5.0,18,0.00,,,0.00,2.000000,,2013-06-17 03:54:00,
2013-06-16 22:02:00,70.0,25.0,-100.00,NW,322,3.0,5.0,18,0.00,,,0.00,2.000000,,2013-06-17 04:02:00,
2013-06-16 22:12:00,70.0,25.0,-100.00,NW,322,3.0,5.0,18,0.00,,,0.00,2.000000,,2013-06-17 04:12:00,
2013-06-16 22:22:00,70.0,25.0,-100.00,NW,322,3.0,5.0,18,0.00,,,0.00,2.000000,,2013-06-17 04:22:00,
2013-06-16 22:30:00,66.0,25.0,-100.00,NNW,330,1.0,4.0,21,0.00,,,0.00,0.000000,,2013-06-17 04:30:00,
2013-06-16 22:53:00,66.0,25.0,-100.00,NNW,330,1.0,4.0,21,0.00,,,0.00,0.000000,,2013-06-17 04:53:00,
2013-06-16 23:02:00,66.0,25.0,-100.00,NNW,330,1.0,4.0,21,0.00,,,0.00,0.000000,,2013-06-17 05:02:00,
2013-06-16 23:12:00,66.0,25.0,-100.00,NNW,330,1.0,4.0,21,0.00,,,0.00,0.000000,,2013-06-17 05:12:00,
2013-06-16 23:22:00,66.0,25.0,-100.00,NNW,330,1.0,4.0,21,0.00,,,0.00,0.000000,,2013-06-17 05:22:00,
2013-06-16 23:30:00,65.0,24.0,-100.00,North,360,3.0,4.0,21,0.00,,,0.00,0.000000,,2013-06-17 05:30:00,
2013-06-16 23:53:00,65.0,24.0,-100.00,North,360,3.0,4.0,21,0.00,,,0.00,0.000000,,2013-06-17 05:53:00,